Flag for Philippines Weather past 2 weeks in Olongapo, Philippines

Now
81 °F

Passing clouds.


Feels Like: 83 °F
Forecast: 72 / 88 °F
Wind: No wind

Location: Subic Bay Weather Station

Current Time: Jan 27, 2015 at 7:26:19 PM

Latest Report: Jan 27, 2015 at 6:00 PM


Visibility: N/A

Pressure: 29.83 "Hg

Humidity: 66%

Dew point: 68 °F

Location of OlongapoLocation

Historic Weather in Olongapo — Graph

°F

Olongapo temperature yesterday

Maximum temperature yesterday: 88 °F (at 2:00 PM)
Minimum temperature yesterday: 72 °F (at 5:00 AM)
Average temperature yesterday: 80 °F

Past Weeks' High & Low Weather Summary

 TemperatureHumidityPressure
High88 °F (Jan 15, 1:00 PM)100% (Jan 17, 9:00 PM)30.04 "Hg (Jan 17, 9:00 PM)
Low68 °F (Jan 18, 11:00 PM)43% (Jan 27, 1:00 PM)29.80 "Hg (Jan 18, 2:00 PM)
Average78 °F67%29.92 "Hg
* Reported Jan 12 6:00 PM — Jan 27 6:00 PM, Olongapo, Weather by CustomWeather, © 2014

Note: Actual official high and low records may vary slightly from our data, if they occured in-between our weather recording intervals... More about our weather records

Advertising

Olongapo weather history for previous 24 hours

 ConditionsComfort  
Time TempWeatherWind HumidityBarometerVisibility
6:00 PM
Jan 27
81 °FPassing clouds.No wind66%29.83 "HgN/A
5:00 PM82 °FPartly sunny.8 mph58%29.83 "HgN/A
4:00 PM82 °FPartly sunny.8 mph62%29.80 "HgN/A
3:00 PM82 °FPartly sunny.8 mph62%29.83 "HgN/A
2:00 PM88 °FPartly sunny.6 mph52%29.83 "HgN/A
1:00 PM88 °FPassing clouds.12 mph43%29.86 "HgN/A
12:00 PM86 °FWarm.13 mph49%29.89 "HgN/A
11:00 AM84 °FPassing clouds.16 mph51%29.92 "HgN/A
10:00 AM82 °FPassing clouds.15 mph55%29.92 "HgN/A
9:00 AM79 °FPassing clouds.6 mph61%29.95 "HgN/A
8:00 AM73 °FClear.1 mph74%29.92 "HgN/A
7:00 AM72 °FPassing clouds.No wind78%29.92 "HgN/A
6:00 AM70 °FPassing clouds.No wind83%29.89 "HgN/A
5:00 AM68 °FPassing clouds.No wind88%29.89 "HgN/A
4:00 AM72 °FPassing clouds.No wind83%29.89 "HgN/A
3:00 AM68 °FPassing clouds.No wind88%29.89 "HgN/A
2:00 AM70 °FPassing clouds.No wind88%29.92 "HgN/A
1:00 AM72 °FPassing clouds.No wind83%29.92 "HgN/A
12:00 AM73 °FPassing clouds.No wind78%29.95 "HgN/A
11:00 PM
Jan 26
73 °FPassing clouds.No wind78%29.95 "HgN/A
10:00 PM75 °FPassing clouds.No wind74%29.95 "HgN/A
9:00 PM75 °FPassing clouds.No wind78%29.95 "HgN/A
8:00 PM79 °FPassing clouds.No wind65%29.95 "HgN/A
7:00 PM81 °FPassing clouds.No wind62%29.92 "HgN/A
Weather by CustomWeather, © 2014

See weather overviewHow to use our weather pages